Temperature
7 7 7 7 7 7 7 8 8 8 8 8 8 7 6 5 4 3 3 2 2 2 2 2 2 2 2 3 3 3 3 3 3 3 3 4 4 4 4 5 5 5 5 5
7 7 7 7 7 7 7 7 8 8 8 8 7 6 5 5 4 3 3 2 2 2 2 2 2 2 2 2 2 3 3 3 3 3 3 3 3 3 4 4 4 4 4 4
8 8 8 8 8 8 7 8 8 8 9 8 7 6 6 5 4 3 3 2 2 2 2 2 2 2 2 2 2 2 2 2 2 2 2 2 2 2 3 3 3 3 3 3
7 8 7 10 8 8 8 8 8 8 8 8 7 6 5 4 4 4 3 3 3 2 2 2 2 2 2 2 2 2 2 2 2 2 2 2 2 2 2 2 2 2 2 2
7 8 9 9 7 7 7 8 8 8 8 7 5 5 5 4 4 4 3 3 3 3 2 2 2 2 2 2 2 2 1 1 1 1 1 1 1 1 1 1 1 1 1 1
7 7 8 10 8 6 7 9 8 7 7 6 5 7 8 5 4 4 4 3 3 3 2 2 2 2 1 1 1 1 1 1 1 1 1 1 0 0 0 0 0 0 0 0
7 7 9 9 6 6 8 10 8 6 6 6 6 7 6 5 5 4 4 3 3 2 2 2 2 1 1 1 1 0 0 0 0 0 0 -0 -0 -0 -0 -0 -0 -0 -0 -1
7 7 8 7 6 8 9 7 6 6 6 5 6 5 5 5 4 4 4 3 3 2 2 2 1 1 1 0 0 -0 -0 -0 -0 -1 -1 -1 -1 -1 -1 -1 -1 -1 -2 -2
8 9 8 6 7 7 6 6 6 6 6 5 5 5 5 5 4 4 3 3 3 2 2 1 1 1 0 -0 -0 -0 -1 -1 -1 -1 -1 -1 -2 -2 -2 -2 -2 -3 -3 -3
6 7 6 5 5 6 6 6 6 6 6 5 5 5 5 5 4 4 3 3 3 2 2 1 1 0 0 -0 -1 -1 -1 -1 -1 -1 -2 -2 -2 -2 -2 -3 -3 -3 -4 -4
5 6 6 6 6 6 6 6 6 6 6 5 5 5 5 4 4 4 3 3 2 2 1 1 0 0 -0 -1 -1 -1 -2 -2 -2 -2 -2 -2 -3 -3 -3 -4 -4 -4 -5 -5
7 7 7 7 6 6 6 5 5 5 5 5 5 5 5 4 4 4 3 3 2 2 1 1 0 -0 -1 -1 -1 -2 -2 -2 -2 -3 -3 -3 -3 -3 -4 -4 -4 -5 -5 -5
6 5 5 5 5 5 5 5 5 5 5 5 5 5 4 4 4 3 3 2 2 1 1 0 -0 -1 -1 -2 -2 -2 -2 -3 -3 -3 -3 -4 -4 -4 -4 -4 -5 -5 -5 -6
4 4 4 5 5 5 4 4 4 4 4 4 4 4 4 4 3 3 3 2 2 1 0 -0 -1 -1 -1 -2 -2 -3 -3 -3 -4 -4 -4 -4 -5 -5 -5 -6 -6 -6 -6 -6
4 4 4 4 4 4 4 4 3 4 4 4 4 4 3 3 3 3 2 2 1 1 0 -0 -1 -1 -2 -2 -3 -3 -3 -4 -4 -4 -5 -5 -5 -6 -6 -6 -7 -7 -6 -6
3 3 3 3 3 3 3 3 3 3 3 3 3 3 3 3 2 2 2 1 1 0 -0 -1 -1 -2 -2 -3 -3 -3 -4 -4 -5 -5 -5 -6 -6 -6 -7 -7 -7 -7 -8 -8
2 3 3 3 3 3 3 3 3 3 3 3 3 2 2 2 2 1 1 1 0 -0 -1 -1 -2 -2 -3 -3 -4 -4 -4 -5 -5 -5 -6 -6 -7 -7 -8 -8 -8 -8 -8 -8
3 3 3 3 3 3 3 3 2 2 2 2 2 2 2 2 1 1 1 0 -0 -1 -1 -2 -2 -3 -3 -4 -4 -5 -5 -5 -6 -6 -6 -7 -7 -8 -8 -8 -8 -8 -8 -8
3 3 3 3 3 2 3 3 2 2 2 2 2 1 1 1 1 0 -0 -1 -1 -1 -1 -2 -3 -3 -4 -4 -5 -5 -5 -6 -6 -7 -7 -7 -8 -8 -8 -8 -9 -9 -9 -9
3 3 3 3 3 3 3 3 2 2 2 2 1 1 1 0 -0 -0 -1 -1 -1 -2 -2 -3 -3 -4 -4 -5 -5 -5 -6 -6 -7 -7 -7 -8 -8 -8 -9 -9 -9 -9 -9 -9
3 3 3 3 3 3 2 2 2 2 2 1 1 0 0 -0 -1 -1 -1 -2 -2 -2 -3 -3 -4 -4 -4 -5 -5 -6 -6 -7 -7 -8 -8 -8 -8 -9 -9 -9 -9 -9 -9 -10
3 3 3 2 2 2 2 2 2 1 1 1 0 -0 -0 -1 -1 -2 -2 -2 -2 -3 -3 -4 -4 -4 -5 -5 -6 -6 -7 -7 -7 -8 -8 -8 -9 -9 -9 -9 -9 -9 -10 -10
3 2 2 2 2 2 2 1 1 1 1 0 -0 -1 -1 -1 -2 -2 -2 -2 -3 -3 -4 -4 -5 -5 -5 -6 -6 -7 -7 -7 -8 -8 -8 -9 -9 -9 -9 -9 -10 -10 -10 -10
3 2 2 2 1 1 1 1 1 0 -0 -0 -1 -1 -1 -2 -2 -2 -3 -3 -3 -4 -4 -5 -5 -5 -6 -6 -7 -7 -7 -8 -8 -8 -8 -9 -9 -9 -9 -10 -10 -10 -10 -10
2 2 2 1 1 1 1 1 0 -0 -0 -1 -1 -1 -2 -2 -2 -3 -3 -4 -4 -4 -5 -5 -6 -6 -6 -7 -7 -7 -8 -8 -8 -8 -9 -9 -9 -9 -9 -10 -10 -10 -10 -10
2 2 1 1 1 1 0 0 -0 -0 -1 -1 -1 -2 -2 -3 -3 -3 -4 -4 -5 -5 -5 -6 -6 -6 -7 -7 -7 -7 -8 -8 -8 -9 -9 -9 -9 -9 -9 -10 -10 -10 -10 -10
2 1 1 1 1 0 -0 -0 -0 -1 -1 -1 -2 -2 -3 -3 -3 -4 -4 -5 -5 -5 -6 -6 -6 -7 -7 -7 -7 -8 -8 -8 -8 -9 -9 -9 -9 -9 -9 -9 -10 -10 -10 -10
Wind_Speed
4 5 4 4 5 4 6 5 4 3 4 5 4 3 2 2 1 2 3 5 6 7 8 9 9 10 10 9 9 9 9 9 8 8 8 9 9 8 7 7 7 6 6 6
3 3 3 5 6 7 7 6 7 7 6 4 2 2 2 2 2 2 2 3 4 5 6 7 8 9 9 9 9 9 10 10 9 9 9 10 10 10 9 9 8 8 8 7
3 4 5 6 5 7 4 5 6 6 4 3 3 4 4 4 3 3 2 2 2 3 4 5 6 6 7 8 8 9 10 10 10 10 9 9 9 10 10 9 9 9 8 8
3 3 4 0 1 3 5 5 7 7 6 5 5 3 4 5 5 4 3 2 1 1 2 3 4 5 5 6 7 8 9 9 9 9 9 9 9 9 9 8 8 8 8 9
2 3 5 3 2 3 4 4 6 8 7 5 3 2 4 6 6 5 4 3 2 1 1 2 3 4 4 6 7 8 9 9 9 9 8 9 9 9 8 8 8 8 8 8
3 3 4 1 2 2 2 4 3 5 6 5 5 4 3 5 6 6 4 3 2 1 1 1 3 3 4 5 6 7 7 7 7 7 8 8 8 8 7 7 7 7 7 7
6 5 6 2 3 5 4 1 2 4 5 7 7 5 1 5 6 6 5 4 3 3 1 1 2 2 3 4 6 6 6 6 7 7 7 7 7 7 7 6 6 6 7 7
5 6 5 4 6 6 3 1 2 4 5 7 7 4 4 5 6 6 6 5 5 3 2 1 1 1 2 3 4 5 5 5 6 7 6 6 6 6 6 6 7 7 7 7
7 6 1 5 7 3 2 4 4 5 5 6 7 7 6 6 7 7 7 6 5 4 3 2 1 0 1 2 3 3 4 5 5 6 6 6 6 6 6 6 6 6 7 7
7 10 9 9 9 8 7 7 7 6 6 7 8 8 8 7 7 7 7 7 6 5 4 3 1 0 1 2 2 3 3 4 5 5 6 6 5 5 6 6 7 7 7 8
9 10 9 8 8 8 7 7 7 6 6 8 8 9 9 8 8 8 7 7 6 6 5 4 3 1 1 1 2 2 3 3 4 5 5 5 5 5 6 5 7 7 7 7
9 7 6 5 3 5 6 7 7 7 7 7 8 9 9 8 8 8 8 7 7 6 5 4 3 2 1 1 2 2 3 3 3 4 4 5 5 5 5 6 9 9 9 9
9 5 7 9 8 7 7 8 8 8 8 8 7 8 8 7 7 7 7 8 8 7 6 5 4 3 2 1 2 2 3 3 3 4 4 5 5 6 7 7 7 8 10 11
11 8 9 8 8 7 8 8 7 7 7 7 6 6 7 6 7 8 8 8 8 7 6 5 4 3 2 2 2 2 2 3 4 4 4 5 5 6 6 7 8 7 8 11
11 11 10 8 8 7 6 5 6 6 5 5 5 6 7 8 8 8 7 7 7 6 6 5 5 4 2 2 2 2 2 2 3 4 4 4 5 5 6 7 7 8 8 9
6 7 9 9 10 8 7 6 7 7 6 6 6 6 7 7 6 6 6 7 7 7 7 6 5 4 3 2 2 2 2 3 4 4 4 4 5 5 6 7 7 7 8 8
7 7 7 7 9 9 8 8 8 8 7 7 6 5 5 6 6 6 6 7 6 6 6 6 5 3 3 2 2 2 2 3 4 4 4 4 5 5 6 6 7 7 8 9
12 10 9 9 9 9 9 8 7 7 7 6 5 5 7 8 8 7 7 6 6 5 4 4 4 3 3 3 2 2 2 2 3 3 4 4 5 5 6 6 7 8 8 9
8 9 9 9 9 9 9 8 7 6 5 5 6 6 7 6 6 6 6 7 7 6 5 4 4 3 3 3 2 2 2 3 3 3 4 5 6 5 5 6 7 7 8 8
6 7 7 7 7 7 7 6 4 4 4 5 5 5 5 5 6 6 7 6 5 4 4 5 4 3 3 3 3 2 3 3 3 4 4 4 5 5 6 6 7 7 8 8
6 5 5 5 5 4 4 4 4 4 4 5 6 6 5 5 5 6 6 5 5 4 5 5 4 3 3 3 4 3 3 3 3 4 4 4 5 5 6 6 7 7 7 8
5 5 5 4 3 3 2 3 4 4 4 4 4 5 5 5 5 5 5 4 4 6 5 4 4 4 4 4 3 3 3 3 3 3 4 4 5 5 6 7 7 7 7 8
5 5 5 5 4 3 2 3 4 5 5 5 5 6 6 5 5 5 4 4 4 6 5 4 4 5 5 3 3 3 3 3 4 4 4 5 5 5 6 7 7 7 7 7
6 6 5 4 4 4 4 4 4 3 4 4 4 5 5 4 4 4 3 5 6 6 4 4 6 6 5 3 3 3 3 3 4 4 4 5 5 5 6 6 7 7 7 8
6 6 6 6 6 6 5 4 4 4 4 3 4 4 4 4 4 4 4 4 6 5 3 5 6 5 4 3 3 3 3 4 4 4 4 5 5 5 6 6 6 7 7 7
7 7 7 7 6 5 5 5 5 5 5 4 4 4 4 3 4 4 3 4 5 5 4 3 4 4 3 3 3 4 4 4 4 4 5 5 6 6 6 6 8 7 7 7
7 6 5 5 6 6 6 6 6 7 7 6 5 5 5 5 5 5 5 4 4 4 3 3 3 3 3 3 3 3 4 4 4 4 4 5 5 5 6 7 7 7 7 7
Wind_Direction
273 277 267 270 264 231 216 234 248 258 261 268 265 263 268 266 301 339 353 358 2 6 9 11 13 15 18 21 22 26 33 38 33 28 28 29 28 26 29 27 23 21 24 24
275 256 272 274 261 241 234 235 240 258 270 265 240 220 218 224 241 284 317 335 352 2 7 10 11 11 15 20 22 28 35 34 31 30 30 29 27 27 29 27 26 27 28 27
281 310 292 274 250 219 210 213 220 236 243 198 211 216 222 223 224 236 264 295 332 353 2 7 9 10 15 19 23 31 34 32 30 29 29 28 27 28 28 25 28 31 30 30
296 310 255 332 87 214 226 239 227 242 251 235 233 233 233 226 224 223 223 236 271 328 357 9 16 17 19 25 28 31 32 29 27 26 27 25 26 25 21 20 22 22 20 20
273 281 275 273 218 202 225 257 227 233 243 237 214 226 233 216 213 215 209 207 208 216 354 15 22 21 26 30 29 30 26 22 18 19 20 20 20 17 14 15 16 15 13 13
245 259 253 203 148 164 215 254 202 216 230 205 186 233 228 177 190 194 190 184 176 158 107 40 21 21 32 30 28 23 16 12 12 14 15 14 10 8 7 8 7 6 8 8
236 250 267 238 158 163 213 280 155 213 221 200 208 241 121 159 180 184 179 173 167 157 138 58 25 31 35 27 18 8 6 8 10 10 8 5 3 2 1 1 1 2 2 2
211 227 251 161 161 202 251 19 228 232 226 218 224 229 199 190 187 183 180 177 172 167 156 111 50 39 34 19 2 1 4 7 8 6 4 359 358 357 357 357 357 358 357 356
220 235 286 188 215 248 276 255 251 247 243 228 228 226 213 207 201 194 190 184 179 176 166 149 113 34 14 359 355 356 1 2 1 359 359 356 354 353 353 357 357 355 353 349
258 260 255 249 250 255 252 252 262 262 255 234 231 229 220 212 205 199 194 190 183 182 185 183 177 196 331 345 343 343 350 351 350 351 353 355 353 353 353 354 353 350 347 342
252 268 277 257 237 244 250 252 256 259 251 240 235 230 222 215 208 201 194 189 187 193 197 195 189 202 275 320 323 329 339 341 343 346 345 347 351 352 348 350 347 338 335 332
243 241 237 263 268 265 257 257 258 258 256 243 229 228 222 216 208 199 193 187 189 194 197 196 195 203 228 280 297 310 324 334 337 337 338 339 339 338 342 335 336 336 333 328
247 259 260 278 281 267 262 267 267 257 250 248 238 225 218 214 203 194 190 190 193 194 194 193 195 205 223 262 282 296 312 323 325 327 329 332 333 331 329 329 328 328 333 333
242 252 266 260 264 272 271 269 265 259 254 245 237 221 209 206 198 194 195 194 190 185 187 191 196 207 223 244 261 282 297 309 315 317 320 321 323 322 321 324 325 327 329 331
240 233 247 270 277 275 272 265 259 255 252 245 232 218 206 201 201 199 191 181 177 180 186 191 200 209 211 223 243 267 285 304 309 310 310 311 313 313 314 317 317 319 322 327
236 239 247 255 261 266 265 255 252 254 250 243 233 224 214 206 196 186 180 177 179 189 191 194 203 206 199 212 236 256 274 299 307 304 305 308 310 310 313 314 315 316 319 325
238 248 242 251 256 259 256 252 252 253 248 240 232 216 198 185 182 185 185 185 189 191 190 194 199 194 194 209 234 258 278 291 299 299 303 306 306 307 308 308 310 312 314 318
234 244 246 251 257 260 261 258 253 248 241 235 215 197 192 191 195 193 185 177 177 186 194 195 191 185 194 212 236 257 276 289 293 297 302 303 305 305 305 305 308 310 313 316
235 244 250 251 252 251 251 252 250 242 230 207 197 200 201 199 194 186 178 178 186 197 199 192 188 191 204 215 234 248 269 281 286 290 296 302 303 302 304 305 307 309 311 313
239 244 249 252 250 241 240 241 232 222 207 191 186 188 193 193 185 181 182 194 204 199 179 181 188 200 212 220 234 249 263 272 280 288 293 296 298 301 302 304 306 308 310 311
237 240 241 240 241 238 227 212 202 202 194 186 187 192 193 188 183 181 187 203 198 182 179 182 190 204 216 223 226 243 253 265 275 282 287 291 295 297 300 304 306 306 307 309
224 224 226 221 216 226 214 194 191 188 184 186 187 184 181 185 186 192 205 208 181 177 183 192 201 213 218 218 227 237 248 260 269 275 279 284 289 294 299 304 304 304 304 305
218 216 215 212 206 204 202 197 189 186 189 193 193 193 194 192 188 191 204 192 181 187 190 199 210 216 214 210 226 238 247 255 263 268 275 280 285 290 295 298 298 300 301 303
214 214 209 197 182 189 207 209 188 188 191 198 201 197 190 187 195 203 194 175 181 186 194 203 210 214 209 213 227 239 246 253 261 269 275 280 283 286 288 291 293 296 297 300
212 210 202 196 205 215 209 191 181 188 190 196 197 194 195 197 194 181 171 175 184 188 196 204 210 212 212 221 229 239 247 253 264 274 276 279 280 283 285 287 289 293 295 296
213 217 218 216 218 215 199 190 195 197 193 196 196 190 185 178 170 167 169 177 187 194 197 201 205 212 218 225 236 245 253 262 269 271 273 277 280 281 283 286 289 289 291 292
215 218 220 226 223 212 205 202 203 203 198 195 194 188 183 178 174 175 176 179 186 195 199 203 207 215 223 232 242 248 254 259 264 269 273 274 276 278 281 283 286 288 290 290
Height
1496 1494 1493 1491 1489 1489 1489 1485 1482 1479 1480 1478 1479 1481 1481 1481 1480 1479 1477 1474 1471 1468 1465 1461 1458 1455 1451 1448 1445 1442 1440 1437 1436 1435 1433 1432 1431 1430 1429 1429 1428 1427 1427 1427
1495 1492 1491 1490 1486 1486 1486 1485 1483 1480 1479 1477 1479 1480 1480 1480 1479 1478 1476 1474 1472 1469 1467 1464 1461 1457 1454 1451 1448 1445 1443 1440 1439 1437 1435 1434 1432 1431 1430 1429 1427 1426 1425 1425
1489 1490 1488 1482 1479 1481 1481 1480 1479 1477 1476 1477 1479 1479 1479 1479 1478 1477 1476 1474 1472 1470 1468 1465 1463 1460 1457 1454 1451 1448 1445 1443 1441 1439 1437 1436 1434 1432 1430 1428 1427 1426 1424 1423
1491 1490 1489 1476 1479 1479 1479 1477 1477 1476 1475 1476 1477 1477 1478 1477 1477 1476 1475 1474 1472 1471 1468 1466 1464 1462 1459 1456 1453 1451 1448 1446 1443 1441 1439 1437 1435 1433 1431 1429 1427 1425 1424 1423
1493 1487 1478 1476 1478 1479 1478 1474 1473 1474 1474 1475 1476 1477 1475 1474 1474 1474 1474 1473 1472 1470 1469 1467 1465 1463 1460 1458 1455 1453 1450 1448 1445 1443 1441 1438 1436 1434 1432 1430 1428 1426 1424 1422
1492 1488 1478 1471 1476 1478 1479 1471 1471 1472 1472 1474 1475 1473 1471 1472 1472 1472 1472 1472 1471 1470 1469 1467 1465 1463 1461 1459 1456 1454 1452 1449 1447 1445 1442 1439 1437 1435 1433 1430 1428 1426 1424 1421
1490 1485 1472 1472 1476 1478 1475 1466 1469 1470 1470 1471 1471 1470 1471 1470 1470 1470 1471 1470 1470 1469 1468 1467 1465 1464 1461 1459 1457 1455 1452 1450 1448 1445 1442 1440 1437 1435 1432 1430 1428 1425 1423 1420
1486 1483 1475 1472 1474 1472 1467 1467 1467 1467 1468 1468 1468 1468 1468 1468 1468 1468 1469 1469 1468 1468 1467 1466 1465 1463 1461 1459 1457 1455 1453 1450 1448 1445 1442 1440 1437 1434 1432 1429 1427 1424 1421 1419
1477 1471 1468 1469 1468 1467 1467 1466 1465 1465 1465 1465 1465 1465 1465 1465 1466 1466 1466 1466 1466 1466 1465 1464 1463 1462 1460 1458 1456 1454 1452 1450 1447 1445 1442 1439 1436 1434 1431 1428 1426 1423 1420 1418
1476 1466 1466 1465 1465 1464 1464 1463 1463 1463 1462 1462 1461 1461 1462 1462 1462 1463 1463 1463 1463 1463 1463 1462 1461 1460 1459 1457 1455 1453 1451 1449 1447 1444 1441 1438 1436 1433 1430 1427 1425 1422 1419 1416
1470 1464 1463 1460 1460 1460 1460 1460 1459 1459 1458 1458 1458 1457 1458 1458 1458 1459 1459 1460 1460 1460 1460 1460 1459 1458 1457 1455 1454 1452 1450 1448 1445 1443 1440 1437 1435 1432 1429 1426 1424 1421 1418 1415
1459 1457 1458 1457 1456 1456 1456 1455 1455 1454 1454 1453 1453 1453 1453 1454 1455 1455 1456 1456 1457 1457 1457 1457 1456 1455 1454 1453 1452 1450 1448 1446 1443 1441 1438 1435 1433 1430 1427 1425 1422 1419 1416 1413
1454 1454 1454 1453 1453 1452 1451 1451 1450 1450 1449 1449 1449 1449 1449 1449 1450 1451 1452 1453 1453 1453 1454 1454 1453 1453 1452 1451 1449 1448 1446 1443 1441 1438 1436 1433 1430 1427 1424 1422 1420 1416 1413 1410
1450 1451 1449 1448 1448 1448 1447 1446 1445 1444 1444 1444 1444 1444 1444 1445 1446 1447 1448 1449 1449 1450 1450 1450 1450 1449 1449 1448 1446 1445 1443 1441 1439 1436 1433 1431 1428 1425 1422 1419 1416 1413 1410 1407
1444 1445 1444 1443 1443 1442 1441 1440 1440 1439 1439 1439 1439 1439 1440 1440 1441 1442 1444 1444 1445 1446 1446 1446 1446 1446 1445 1444 1443 1441 1440 1438 1436 1433 1431 1428 1425 1422 1420 1417 1413 1410 1407 1404
1438 1438 1438 1438 1437 1436 1436 1435 1434 1434 1434 1434 1434 1434 1435 1436 1437 1438 1440 1440 1441 1441 1442 1442 1442 1442 1441 1440 1439 1438 1436 1434 1432 1430 1427 1425 1422 1420 1417 1414 1411 1408 1405 1401
1434 1433 1433 1432 1432 1431 1430 1430 1429 1429 1429 1429 1430 1430 1431 1432 1433 1434 1435 1436 1437 1438 1438 1438 1438 1438 1437 1436 1435 1434 1432 1431 1429 1427 1424 1422 1419 1417 1414 1411 1408 1405 1403 1400
1427 1428 1428 1427 1427 1426 1425 1425 1425 1424 1425 1425 1425 1426 1426 1427 1428 1430 1431 1432 1433 1434 1434 1434 1434 1434 1433 1432 1431 1430 1429 1427 1425 1423 1421 1418 1416 1414 1411 1408 1405 1403 1400 1397
1421 1422 1422 1422 1421 1421 1420 1420 1420 1420 1420 1420 1421 1421 1422 1424 1425 1426 1427 1428 1428 1429 1430 1430 1430 1430 1429 1428 1427 1426 1425 1423 1421 1419 1417 1415 1413 1410 1408 1405 1402 1400 1397 1394
1417 1417 1417 1417 1417 1416 1416 1416 1416 1416 1416 1417 1417 1418 1419 1420 1421 1422 1423 1423 1424 1425 1426 1426 1426 1426 1425 1424 1423 1422 1421 1419 1417 1416 1414 1411 1409 1407 1404 1402 1399 1397 1394 1391
1413 1413 1413 1413 1413 1413 1413 1413 1413 1413 1413 1414 1414 1415 1416 1416 1417 1418 1418 1419 1420 1421 1421 1422 1422 1421 1421 1420 1419 1418 1417 1415 1414 1412 1410 1408 1406 1404 1401 1399 1396 1393 1391 1388
1409 1409 1409 1409 1409 1409 1409 1410 1410 1410 1410 1411 1411 1412 1412 1413 1414 1414 1415 1416 1416 1417 1417 1417 1417 1417 1417 1416 1415 1414 1413 1412 1410 1408 1407 1405 1403 1400 1398 1396 1393 1390 1388 1385
1406 1406 1406 1406 1406 1406 1406 1406 1407 1407 1408 1408 1408 1409 1409 1409 1410 1410 1411 1412 1412 1413 1413 1413 1413 1413 1413 1412 1411 1410 1409 1408 1406 1405 1403 1401 1399 1397 1395 1392 1390 1387 1384 1381
1402 1403 1403 1403 1403 1402 1402 1403 1403 1404 1405 1405 1405 1405 1405 1406 1406 1407 1407 1408 1408 1409 1409 1409 1409 1409 1409 1408 1407 1407 1405 1404 1403 1401 1399 1397 1395 1393 1391 1389 1386 1384 1381 1378
1398 1399 1398 1398 1398 1398 1399 1399 1399 1400 1400 1401 1401 1402 1402 1402 1403 1403 1403 1404 1405 1405 1405 1405 1406 1405 1405 1404 1403 1403 1401 1400 1399 1397 1395 1393 1392 1390 1387 1385 1383 1380 1377 1375
1393 1394 1394 1394 1394 1394 1394 1394 1394 1395 1396 1396 1397 1397 1398 1398 1399 1399 1400 1400 1401 1401 1402 1402 1402 1402 1401 1400 1399 1398 1397 1396 1395 1393 1391 1390 1388 1386 1384 1382 1379 1377 1374 1371
1388 1388 1388 1388 1388 1389 1389 1389 1389 1390 1390 1391 1392 1393 1393 1394 1395 1395 1396 1396 1397 1397 1398 1398 1398 1398 1397 1396 1395 1394 1393 1392 1391 1389 1388 1386 1384 1382 1380 1378 1376 1373 1371 1368